Willmar, MN

8:34 AM CDT on September 23, 2017 (GMT -0500)
Willmar

Weather History for KBDH - January, 2014

Change the Weather History Date:

Saturday, January 4, 2014

  Actual Average (KBBB) Record (KBBB)
Temperature  
Mean Temperature 16 °F -  
Max Temperature 37 °F 17 °F 48 °F (2012)
Min Temperature -5 °F 0 °F -25 °F (1968)
Degree Days  
Heating Degree Days 48    
Moisture  
Dew Point 1 °F    
Average Humidity 71    
Maximum Humidity 86    
Minimum Humidity 57    
Precipitation  
Precipitation 0.00 in - - ()
Sea Level Pressure  
Sea Level Pressure 29.95 in    
Wind  
Wind Speed 21 mph (NW)    
Max Wind Speed 33 mph    
Max Gust Speed 43 mph    
Visibility 9 miles    
Events      
Averages and records for this station are not official NWS values.
T = Trace of Precipitation, MM = Missing Value Source: NWS Daily Summary

Daily Weather History Graph

Daily Weather History Graph

Search for Another Location

Airport or City:

Trip Planner

Search our weather history database for the weather conditions in past years. The results will help you decide how hot, cold, wet, or windy it might be!

Date:

Astronomy

Jan. 04, 2014 Rise Set
Actual Time 7:59 AM CST 4:52 PM CST
Civil Twilight 7:25 AM CST 5:25 PM CST
Nautical Twilight 6:48 AM CST 6:02 PM CST
Astronomical Twilight 6:12 AM CST 6:38 PM CST
Moon 9:54 AM CST (1/4) 9:25 PM CST (1/4)
Length of Visible Light 10h 00m
Length of Day
8h 53m
Waxing Crescent, 15% of the Moon is Illuminated
Jan 4
Waxing Crescent
Jan 7
First Quarter
Jan 15
Full
Jan 23
Last Quarter
Jan 30
New

Hourly Weather History & Observations

Time (CST) Temp. Windchill Dew Point Humidity Pressure Visibility Wind Dir Wind Speed Gust Speed Precip Events Conditions
12:01 AM 35.6 °F 25.9 °F 30.2 °F 81% 29.38 in 10.0 mi WSW 16.1 mph - N/A   Clear
12:21 AM 35.6 °F 26.2 °F 30.2 °F 81% 29.39 in 10.0 mi WSW 15.0 mph - N/A   Mostly Cloudy
12:41 AM 35.6 °F 27.1 °F 30.2 °F 81% 29.39 in 10.0 mi West 12.7 mph - N/A   Overcast
1:21 AM 37.4 °F 25.0 °F 32.0 °F 81% 29.43 in 10.0 mi WNW 29.9 mph 38.0 mph N/A   Overcast
1:41 AM 24.8 °F 7.3 °F 21.2 °F 86% 29.48 in 5.0 mi NW 32.2 mph 42.6 mph N/A   Overcast
2:01 AM 21.2 °F 2.2 °F 15.8 °F 80% 29.51 in 7.0 mi NW 33.4 mph 41.4 mph N/A   Overcast
2:21 AM 17.6 °F -1.9 °F 12.2 °F 79% 29.52 in 7.0 mi NW 29.9 mph 39.1 mph N/A   Overcast
2:41 AM 17.6 °F -1.3 °F 12.2 °F 79% 29.56 in 4.0 mi WNW 27.6 mph 34.5 mph N/A   Overcast
3:01 AM 15.8 °F -3.7 °F 10.4 °F 79% 29.58 in 4.0 mi WNW 27.6 mph 35.7 mph N/A   Overcast
3:21 AM 15.8 °F -4.1 °F 8.6 °F 73% 29.60 in 5.0 mi NW 28.8 mph 38.0 mph N/A   Overcast
3:41 AM 14.0 °F -7.4 °F 8.6 °F 79% 29.62 in 4.0 mi NW 32.2 mph 36.8 mph N/A   Overcast
4:21 AM 12.2 °F -7.9 °F 6.8 °F 79% 29.66 in 10.0 mi NW 25.3 mph 38.0 mph N/A   Mostly Cloudy
4:41 AM 10.4 °F -11.0 °F 5.0 °F 79% 29.67 in 7.0 mi NW 27.6 mph 36.8 mph N/A   Overcast
5:01 AM 10.4 °F -10.7 °F 3.2 °F 73% 29.71 in 10.0 mi NW 26.5 mph 34.5 mph N/A   Mostly Cloudy
5:21 AM 10.4 °F -9.5 °F 3.2 °F 73% 29.74 in 4.0 mi NW 23.0 mph 28.8 mph N/A   Mostly Cloudy
5:41 AM 8.6 °F -12.7 °F 3.2 °F 79% 29.77 in 10.0 mi NW 25.3 mph 29.9 mph N/A   Overcast
6:01 AM 10.4 °F -10.7 °F 3.2 °F 73% 29.79 in 5.0 mi NW 26.5 mph 32.2 mph N/A   Overcast
6:21 AM 10.4 °F -9.5 °F 5.0 °F 79% 29.80 in 5.0 mi NW 23.0 mph - N/A   Overcast
6:41 AM 10.4 °F -11.4 °F 5.0 °F 79% 29.82 in 7.0 mi NW 28.8 mph 32.2 mph N/A   Overcast
7:01 AM 10.4 °F -10.3 °F 5.0 °F 79% 29.83 in 5.0 mi NNW 25.3 mph 35.7 mph N/A   Overcast
7:21 AM 10.4 °F -11.0 °F 5.0 °F 79% 29.85 in 5.0 mi NNW 27.6 mph 32.2 mph N/A   Overcast
7:41 AM 10.4 °F -11.7 °F 3.2 °F 73% 29.86 in 10.0 mi NNW 29.9 mph 34.5 mph N/A   Mostly Cloudy
8:01 AM 10.4 °F -11.0 °F 3.2 °F 73% 29.88 in 10.0 mi NNW 27.6 mph 31.1 mph N/A   Scattered Clouds
8:21 AM 10.4 °F -10.3 °F 3.2 °F 73% 29.89 in 7.0 mi NNW 25.3 mph 29.9 mph N/A   Mostly Cloudy
8:41 AM 10.4 °F -9.9 °F 1.4 °F 67% 29.91 in 10.0 mi NNW 24.2 mph - N/A   Scattered Clouds
9:01 AM 10.4 °F -8.6 °F 1.4 °F 67% 29.94 in 10.0 mi NNW 20.7 mph 24.2 mph N/A   Clear
9:21 AM 10.4 °F -7.7 °F 1.4 °F 67% 29.94 in 10.0 mi NNW 18.4 mph - N/A   Clear
9:41 AM 10.4 °F -6.6 °F 3.2 °F 73% 29.95 in 10.0 mi NW 16.1 mph - N/A   Clear
10:01 AM 8.6 °F -10.5 °F 1.4 °F 73% 29.96 in 10.0 mi NW 19.6 mph 25.3 mph N/A   Clear
10:21 AM 8.6 °F -10.5 °F 1.4 °F 73% 29.96 in 10.0 mi NNW 19.6 mph - N/A   Clear
10:41 AM 10.4 °F -6.0 °F 1.4 °F 67% 29.98 in 10.0 mi NNW 15.0 mph - N/A   Clear
11:01 AM 10.4 °F -8.6 °F -0.4 °F 62% 29.99 in 10.0 mi NNW 20.7 mph - N/A   Clear
11:21 AM 10.4 °F -7.7 °F -0.4 °F 62% 30.00 in 10.0 mi NNW 18.4 mph - N/A   Clear
11:41 AM 10.4 °F -7.2 °F -0.4 °F 62% 30.00 in 10.0 mi NW 17.3 mph - N/A   Clear
12:01 PM 10.4 °F -6.6 °F -0.4 °F 62% 30.00 in 10.0 mi NNW 16.1 mph - N/A   Clear
12:41 PM 10.4 °F -5.4 °F -0.4 °F 62% 30.03 in 10.0 mi NW 13.8 mph - N/A   Clear
1:01 PM 10.4 °F -7.7 °F -0.4 °F 62% 30.02 in 10.0 mi NW 18.4 mph - N/A   Clear
1:21 PM 10.4 °F -6.0 °F -0.4 °F 62% 30.04 in 10.0 mi NW 15.0 mph - N/A   Clear
1:41 PM 10.4 °F -7.2 °F -2.2 °F 57% 30.07 in 10.0 mi WNW 17.3 mph 20.7 mph N/A   Clear
2:01 PM 8.6 °F -11.4 °F -2.2 °F 62% 30.06 in 10.0 mi NW 21.9 mph - N/A   Clear
2:21 PM 8.6 °F -11.0 °F -4.0 °F 57% 30.08 in 10.0 mi NW 20.7 mph - N/A   Clear
2:41 PM 6.8 °F -12.9 °F -2.2 °F 67% 30.09 in 10.0 mi NW 19.6 mph 25.3 mph N/A   Clear
3:01 PM 6.8 °F -14.3 °F -2.2 °F 67% 30.09 in 10.0 mi NW 23.0 mph - N/A   Clear
3:21 PM 6.8 °F -14.7 °F -2.2 °F 67% 30.10 in 10.0 mi NW 24.2 mph 28.8 mph N/A   Clear
4:01 PM 6.8 °F -13.4 °F -2.2 °F 67% 30.12 in 10.0 mi NW 20.7 mph 28.8 mph N/A   Clear
4:41 PM 3.2 °F -18.1 °F -4.0 °F 72% 30.14 in 10.0 mi NW 20.7 mph 24.2 mph N/A   Clear
5:01 PM 3.2 °F -18.6 °F -5.8 °F 66% 30.15 in 10.0 mi NNW 21.9 mph - N/A   Clear
5:21 PM 3.2 °F -16.5 °F -5.8 °F 66% 30.16 in 10.0 mi NNW 17.3 mph 21.9 mph N/A   Clear
5:41 PM 1.4 °F -18.2 °F -5.8 °F 72% 30.16 in 10.0 mi NNW 16.1 mph - N/A   Clear
6:01 PM 1.4 °F -16.9 °F -5.8 °F 72% 30.17 in 10.0 mi NW 13.8 mph - N/A   Clear
6:21 PM 1.4 °F -16.1 °F -5.8 °F 72% 30.18 in 10.0 mi NW 12.7 mph - N/A   Clear
6:41 PM 1.4 °F -16.9 °F -5.8 °F 72% 30.19 in 10.0 mi NW 13.8 mph - N/A   Clear
7:01 PM -0.4 °F -18.4 °F -5.8 °F 78% 30.19 in 10.0 mi NW 12.7 mph - N/A   Clear
7:21 PM -0.4 °F -18.4 °F -5.8 °F 78% 30.20 in 10.0 mi NW 12.7 mph - N/A   Clear
7:41 PM -0.4 °F -20.5 °F -7.6 °F 72% 30.21 in 10.0 mi NW 16.1 mph 20.7 mph N/A   Clear
8:01 PM -0.4 °F -23.3 °F -7.6 °F 72% 30.21 in 10.0 mi NW 21.9 mph - N/A   Clear
8:21 PM -0.4 °F -20.5 °F -9.4 °F 66% 30.22 in 10.0 mi NW 16.1 mph - N/A   Clear
8:41 PM -2.2 °F -22.9 °F -9.4 °F 71% 30.23 in 10.0 mi NNW 16.1 mph - N/A   Clear
9:01 PM -2.2 °F -21.5 °F -9.4 °F 71% 30.24 in 10.0 mi NW 13.8 mph - N/A   Clear
9:21 PM -2.2 °F -22.2 °F -9.4 °F 71% 30.25 in 10.0 mi NW 15.0 mph - N/A   Clear
9:41 PM -2.2 °F -20.7 °F -11.2 °F 66% 30.25 in 10.0 mi NW 12.7 mph - N/A   Clear
10:01 PM -2.2 °F -19.9 °F -11.2 °F 66% 30.26 in 10.0 mi NW 11.5 mph - N/A   Clear
10:21 PM -2.2 °F -20.7 °F -11.2 °F 66% 30.25 in 10.0 mi NW 12.7 mph - N/A   Clear
10:41 PM -4.0 °F -23.7 °F -11.2 °F 71% 30.26 in 10.0 mi NW 13.8 mph - N/A   Clear
11:01 PM -4.0 °F -24.5 °F -11.2 °F 71% 30.27 in 10.0 mi NW 15.0 mph - N/A   Clear
11:21 PM -4.0 °F -22.1 °F -13.0 °F 65% 30.27 in 10.0 mi NW 11.5 mph - N/A   Clear
11:41 PM -5.8 °F -24.4 °F -13.0 °F 71% 30.28 in 10.0 mi NW 11.5 mph - N/A   Clear